Regional Weather Roundup
Issued by NWS Memphis, TN

Home | Current Version | Previous Version | Text Only | Print | Product List | Glossary On
Versions: 1 2 3 4 5 6 7 8 9 10 11 12 13 14 15 16 17 18 19 20 21 22 23 24 25 26 27 28 29 30 31 32 33 34 35 36 37 38 39 40 41 42 43 44 45 46 47 48 49 50
000
ASUS44 KMEG 261810
RWRMEG
MEMPHIS CWA HOURLY WEATHER ROUNDUP
NATIONAL WEATHER SERVICE MEMPHIS TN
100 PM CDT TUE JUL 26 2016

...WEST TENNESSEE...

CITY           SKY/WX    TMP DP  RH WIND       PRES   REMARKS
MEMPHIS INTL   MOSUNNY   93  72  50 S8        29.99F HX 101
6HR MIN TEMP:  81; 6HR MAX TEMP:  96;

NWS MEMPHIS      N/A     93 N/A N/A MISG        N/A
JACKSON        MOSUNNY   93  72  50 VRB5      30.00F HX 101
6HR MIN TEMP:  76; 6HR MAX TEMP:  94;

LEXINGTON      SUNNY     93  70  46 VRB5      30.01F HX  99
DYERSBURG      SUNNY     91  73  55 MISG      29.99F HX 100
UNION CITY     MOSUNNY   93  75  55 SW5       29.99F HX 104
PARIS          SUNNY     90  73  58 W6        30.03S HX  98


...EASTERN ARKANSAS...

CITY           SKY/WX    TMP DP  RH WIND       PRES   REMARKS
JONESBORO      MOSUNNY   92  75  57 SE6       29.97F HX 103
6HR MIN TEMP:  77; 6HR MAX TEMP:  93;

WEST MEMPHIS   SUNNY     93  70  46 SE6       29.97F HX  99
6HR MIN TEMP:  75; 6HR MAX TEMP:  93;

BATESVILLE     PTSUNNY   90  72  55 S5        29.98F HX  96
6HR MIN TEMP:  73; 6HR MAX TEMP:  93;

NEWPORT        SUNNY     95  71  45 VRB7      29.98F HX 102
6HR MIN TEMP:  77; 6HR MAX TEMP:  95;

WALNUT RIDGE   MOSUNNY   93  73  52 S6        29.96F HX 102
6HR MIN TEMP:  75; 6HR MAX TEMP:  93;

BLYTHEVILLE    SUNNY     92  75  57 VRB3      29.99F HX 103
6HR MIN TEMP:  77; 6HR MAX TEMP:  93;

SEARCY         SUNNY     95  77  55 SE12      29.98F HX 109
6HR MIN TEMP:  76; 6HR MAX TEMP:  96;

STUTTGART      SUNNY     93  72  49 SE9       29.98F HX 100
6HR MIN TEMP:  79; 6HR MAX TEMP:  93;

PINE BLUFF     SUNNY     94  71  47 SE8       29.98F HX 101
6HR MIN TEMP:  76; 6HR MAX TEMP:  94;

MONTICELLO     MOSUNNY   91  73  55 E7        29.97F HX  99
6HR MIN TEMP:  77; 6HR MAX TEMP:  94;



...NORTH MISSISSIPPI...

CITY           SKY/WX    TMP DP  RH WIND       PRES   REMARKS
TUPELO         SUNNY     95  68  41 SE9       29.99F HX  99
6HR MIN TEMP:  78; 6HR MAX TEMP:  95;

OXFORD         MOSUNNY   91  70  49 S8        30.01F HX  97
BATESVILLE     SUNNY     91  71  52 CALM      30.00F HX  97
6HR MIN TEMP:  73; 6HR MAX TEMP:  92;

OLIVE BRANCH   PTSUNNY  N/A N/A N/A VRB5      29.99F
TUNICA         MOSUNNY   90  72  55 S3        29.99F HX  96
CLARKSDALE     SUNNY     93  75  55 CALM      29.98F HX 104
CORINTH        SUNNY     93  70  46 VRB6      30.00F HX  99
GREENWOOD      MOSUNNY   92  68  45 E13       29.97F HX  96
6HR MIN TEMP:  74; 6HR MAX TEMP:  94;

GOLDEN TRIANGL MOSUNNY   91  70  49 SE9       29.99F HX  97


...SOUTHEAST MISSOURI...

CITY           SKY/WX    TMP DP  RH WIND       PRES   REMARKS
KENNETT        MOSUNNY   90  77  66 CALM      29.97F HX 102
WEST PLAINS    LGT RAIN  74  70  87 CALM      30.05F
6HR MIN TEMP:  73; 6HR MAX TEMP:  86; 6HR PCP:  1.44;

POPLAR BLUFF   SUNNY     89  77  67 S5        29.98F HX 101
6HR MIN TEMP:  76; 6HR MAX TEMP:  89;

CAPE GIRARDEAU PTSUNNY   86  76  71 W5        29.99F HX  96
6HR MIN TEMP:  75; 6HR MAX TEMP:  89;



...NORTHWEST ALABAMA...

CITY           SKY/WX    TMP DP  RH WIND       PRES   REMARKS
MUSCLE SHOALS  MOSUNNY   92  71  50 CALM      30.02F HX  98
6HR MIN TEMP:  77; 6HR MAX TEMP:  93;



...MIDDLE TENNESSEE...

CITY           SKY/WX    TMP DP  RH WIND       PRES   REMARKS
NASHVILLE      PTSUNNY   95  68  41 NW6       30.02F HX  99
6HR MIN TEMP:  77; 6HR MAX TEMP:  97;

CLARKSVILLE    SUNNY     90  73  57 W6        30.01F HX  98
6HR MIN TEMP:  73; 6HR MAX TEMP:  90;

COLUMBIA       MOSUNNY   93  72  49 E6        30.01F HX 100


...WESTERN KENTUCKY...

CITY           SKY/WX    TMP DP  RH WIND       PRES   REMARKS
PADUCAH        PTSUNNY   90  76  63 W5        29.99F HX 101
6HR MIN TEMP:  76; 6HR MAX TEMP:  90;

FORT CAMPBELL  SUNNY     90  74  58 VRB5      30.01F HX  99
6HR MIN TEMP:  74; 6HR MAX TEMP:  91;



...CENTRAL ARKANSAS...

CITY           SKY/WX    TMP DP  RH WIND       PRES   REMARKS
LITTLE ROCK    MOSUNNY   94  74  52 SE7       29.97F HX 104
6HR MIN TEMP:  80; 6HR MAX TEMP:  94;



SKY/WX REPORTED AS FAIR MEANS FEW OR NO CLOUDS BELOW
12 THOUSAND FEET.





USA.gov is the U.S. government's official web portal to all federal, state and local government web resources and services.